Location: Bruderhein
(53.8035°N, 112.9265°W)
Time: 12:07:45
(UTC+00:00)

DIWATA 2B (PO-101) - Pass Details

Date: 30 March 2023
Orbit: 581 x 593 km, 98.0° (Epoch: 30 May)

Event Time Altitude Azimuth Distance (km) Brightness Sun altitude
Exits shadow 09:36:39 45° 359° (N) 805 ? -27.2°
Drops below altitude 10° 09:39:36 10° 348° (NNW) 1,914 ? -27.0°
Sets 09:41:46 0° 347° (NNW) 2,820 ? -26.8°
